Theta_e
346 342 341 338 340 340 340 343 343 345 343 345 343 341 339 339 340 339 339 341 339 340 342 342 342 341 343 344 345 345 346 348 347 347 343 341 342 342 344 344 343 345 344
347 341 342 338 338 339 339 340 342 342 343 343 342 342 341 339 340 341 339 341 340 340 341 341 341 341 343 343 342 343 345 348 347 346 343 342 340 342 344 345 345 343 342
350 347 339 339 337 341 343 341 344 344 342 342 341 341 341 341 340 340 341 339 339 339 340 341 341 342 343 343 342 342 343 346 346 346 345 342 340 342 343 345 344 343 342
348 346 339 338 338 340 338 338 340 339 339 340 346 345 339 339 339 341 342 340 340 338 340 342 341 341 342 343 342 342 342 345 346 345 344 343 342 342 343 343 344 343 342
347 345 341 338 347 337 338 336 336 338 338 343 341 341 338 338 340 340 340 341 342 340 337 341 341 343 344 341 340 340 341 344 346 345 343 344 342 342 342 343 344 343 342
347 346 343 342 341 337 337 335 338 340 340 340 338 335 338 338 338 339 339 341 342 340 340 340 340 337 341 339 339 339 340 341 343 344 344 343 342 340 339 341 343 342 340
347 347 343 343 341 337 338 341 340 342 341 341 336 333 333 337 337 336 338 340 340 338 339 343 341 340 338 341 341 339 340 336 342 343 343 342 342 340 340 342 342 340 336
347 345 346 343 342 336 338 340 342 342 340 339 332 330 323 328 332 334 338 340 339 341 338 339 338 342 342 337 339 340 341 342 342 344 344 342 342 342 342 341 339 336 332
345 344 344 344 342 339 336 346 345 341 334 336 337 329 323 320 328 332 334 337 338 339 340 340 339 340 341 340 340 339 341 344 342 345 344 342 342 342 341 340 336 333 334
343 343 346 344 343 339 345 342 342 341 340 332 331 332 332 329 323 322 330 333 336 335 336 337 340 338 338 338 340 340 337 342 343 344 344 343 342 341 340 333 332 333 331
344 346 347 346 344 344 346 343 341 341 338 332 330 328 330 329 330 325 321 327 331 335 336 338 341 341 339 339 339 339 337 338 340 340 342 342 342 341 336 335 333 332 333
345 346 346 347 348 346 344 341 342 340 336 334 331 330 327 327 325 327 326 324 325 327 333 335 337 340 341 338 340 335 334 334 333 332 336 337 339 338 336 335 335 335 333
343 346 348 347 344 345 343 342 341 338 336 333 334 329 329 329 330 330 330 324 322 323 331 334 335 339 343 343 341 336 334 331 327 327 329 331 332 332 334 334 334 334 332
343 347 346 345 344 343 341 341 336 335 337 335 334 333 335 333 331 330 329 327 321 321 330 330 340 343 344 340 338 333 336 327 325 325 325 326 329 330 330 331 332 331 330
343 345 345 343 342 341 340 339 334 336 336 337 333 334 334 338 337 330 331 331 326 318 321 328 333 341 344 341 336 340 343 325 326 325 324 323 324 325 326 326 326 326 327
343 344 343 342 340 338 338 339 336 338 337 335 331 334 336 337 338 333 332 332 333 325 322 331 330 337 341 339 335 341 340 328 323 324 324 323 321 322 322 322 323 324 325
343 340 339 337 336 336 338 339 339 337 334 332 328 326 331 335 336 333 333 329 336 333 328 331 334 336 336 336 336 336 334 335 328 322 323 320 318 318 318 318 319 321 322
339 335 334 334 335 336 337 336 334 334 328 325 326 326 331 333 335 336 335 328 333 336 331 326 328 327 328 332 330 329 328 331 328 322 320 318 314 314 315 315 316 317 317
335 334 335 335 334 334 335 335 334 333 326 326 326 326 330 332 333 335 334 330 334 335 336 326 323 324 324 325 323 324 323 323 323 321 317 314 313 313 314 314 314 313 313
335 335 335 333 334 335 333 333 334 332 329 325 328 329 331 333 334 335 332 334 336 331 329 326 322 320 320 321 320 317 316 320 319 319 317 315 314 313 312 313 315 314 310
334 333 334 334 335 334 330 334 332 329 326 328 325 327 333 330 323 328 332 334 334 328 326 323 320 318 316 317 315 317 315 315 316 318 317 318 320 322 324 318 318 314 309
333 333 333 333 333 331 305 310 323 331 326 325 328 328 333 326 322 316 316 317 329 329 328 322 319 316 317 316 317 316 315 312 309 317 316 316 323 320 325 327 311 307 306
335 334 334 333 334 334 305 306 311 331 326 326 326 327 325 327 326 329 312 311 312 313 321 330 321 319 317 318 318 316 317 317 315 315 317 314 319 317 325 318 306 305 304
335 335 334 334 335 327 304 303 309 332 328 326 326 325 326 328 327 326 327 327 328 328 330 329 328 325 322 322 322 323 322 317 314 317 317 310 316 319 323 322 305 304 303
333 334 334 334 334 331 303 303 315 330 325 323 324 324 324 327 308 306 327 327 328 323 309 308 310 306 305 306 314 317 313 313 310 313 317 317 318 320 321 322 318 304 302
332 331 333 335 319 329 301 303 316 325 322 319 321 321 309 320 300 305 327 325 321 322 322 319 316 309 312 309 309 319 317 314 313 312 324 320 321 320 317 323 321 316 314
Wind_Speed
11 11 11 11 11 10 10 9 10 9 9 9 8 8 8 7 7 5 5 13 9 11 12 12 12 12 11 11 9 8 8 8 9 12 16 12 11 15 21 18 16 14 13
11 13 12 13 11 11 10 10 9 6 8 8 8 8 8 8 8 8 7 8 9 10 11 12 13 13 11 12 10 9 8 8 9 11 15 14 10 14 12 14 15 14 13
13 13 13 13 12 10 10 8 7 6 7 7 9 8 8 9 9 9 9 7 9 14 13 12 12 11 11 11 10 9 8 8 10 11 16 16 13 15 9 12 14 16 16
17 14 12 13 11 10 10 9 7 8 8 8 6 6 10 8 9 8 8 9 6 6 12 14 11 12 12 11 11 9 9 8 9 11 11 17 18 16 8 8 11 14 15
17 13 13 12 11 10 9 9 9 9 7 6 7 10 6 6 8 9 11 10 10 8 6 16 11 9 9 9 9 9 9 9 10 9 10 10 14 12 9 8 10 13 19
16 14 12 12 11 10 8 10 9 6 7 6 8 7 6 8 9 8 10 9 10 10 7 5 7 10 10 10 9 7 7 8 8 8 9 9 17 15 13 10 12 18 24
15 15 11 11 12 11 10 9 8 10 7 4 7 8 8 10 10 8 7 8 10 10 11 7 5 5 9 9 7 6 8 7 9 9 9 10 17 17 14 11 16 22 24
14 13 12 11 12 11 11 11 11 6 6 6 5 6 9 4 6 7 7 7 10 7 7 9 8 9 3 8 10 9 9 12 11 11 11 12 15 17 15 14 25 26 24
9 12 11 10 12 10 11 10 9 10 6 5 6 6 3 4 3 4 7 6 7 6 4 4 8 8 6 4 9 9 9 8 12 12 12 13 14 17 17 25 25 26 24
12 12 13 11 12 10 9 10 8 7 6 7 4 7 9 6 4 3 2 4 3 4 3 5 7 9 4 6 3 8 12 8 8 11 13 13 20 21 27 29 27 28 27
11 13 12 12 11 8 9 8 8 8 7 8 6 4 8 7 6 4 3 5 3 3 3 4 6 7 9 9 7 8 10 9 8 10 11 17 18 26 31 30 29 27 24
10 12 13 11 10 8 8 7 8 8 7 5 5 5 7 6 6 5 2 3 5 3 1 3 4 4 8 8 3 11 9 9 7 10 16 20 22 27 28 29 25 25 24
10 12 12 11 9 9 8 7 7 6 7 7 8 5 8 5 4 5 6 4 3 1 2 3 2 3 3 2 6 7 10 8 10 14 18 21 25 26 25 24 23 24 23
11 13 11 10 9 9 8 7 7 7 8 8 9 8 5 4 5 5 4 5 6 4 4 4 5 5 5 7 8 6 10 9 12 18 20 19 22 22 21 21 21 21 19
11 11 11 10 9 8 8 9 7 8 7 7 5 8 6 4 5 5 5 6 3 7 5 4 4 6 6 5 5 8 9 12 15 19 20 17 18 19 16 15 14 11 11
11 11 10 8 7 8 8 8 7 7 8 6 4 5 6 5 5 6 6 4 5 3 6 7 5 5 5 5 5 5 7 12 17 19 23 18 16 15 15 14 12 11 12
11 10 8 8 8 8 7 6 8 8 8 7 5 4 7 7 6 6 6 4 5 5 6 4 5 6 5 6 6 7 9 10 12 19 21 17 15 13 14 13 13 14 14
9 9 9 8 8 7 6 7 7 5 7 6 7 8 10 6 8 8 7 7 6 6 7 12 7 3 3 6 7 8 7 7 10 15 18 19 16 15 15 14 14 14 12
10 9 9 7 6 4 6 5 5 6 7 8 8 7 8 8 8 7 8 9 6 5 7 9 4 3 3 5 8 9 9 10 7 21 21 20 19 14 14 13 13 13 13
10 9 6 6 3 3 2 4 4 6 8 7 10 7 6 8 9 9 6 8 7 7 8 10 5 5 3 5 7 10 9 8 9 10 15 15 12 11 9 12 12 11 11
9 8 6 6 4 2 5 3 3 5 6 7 4 5 8 1 5 5 6 7 9 8 9 9 5 6 6 6 9 8 11 10 9 9 10 8 7 7 9 8 10 10 10
7 7 6 5 4 5 5 4 1 8 7 5 5 4 4 6 7 4 3 2 9 11 12 11 7 9 8 9 9 10 12 12 6 5 8 6 5 6 7 9 10 10 9
7 6 6 5 4 7 4 3 1 7 7 4 3 4 4 4 8 9 8 9 10 5 9 13 13 11 11 12 11 12 13 11 9 7 10 7 3 4 6 6 8 8 8
7 5 5 5 5 6 4 1 4 7 5 5 6 6 6 8 7 10 12 12 12 9 10 8 11 12 12 12 11 13 12 12 9 6 7 4 3 6 7 7 6 7 8
6 5 5 4 6 6 3 1 1 6 6 5 5 5 4 8 9 9 12 14 13 8 12 14 13 15 15 13 12 12 10 12 8 4 4 6 7 7 6 7 8 8 8
8 5 6 6 7 7 3 1 2 5 5 4 5 6 7 7 9 9 10 11 11 11 13 14 12 13 14 12 8 8 12 10 9 7 8 8 9 8 6 5 6 8 9
Wind_Direction
204 200 203 205 197 203 201 207 232 209 213 222 228 224 246 250 256 261 267 163 211 239 244 241 237 232 227 217 212 219 214 207 211 182 173 178 184 217 214 202 195 186 175
200 201 205 207 205 207 205 214 219 215 233 237 224 237 244 256 244 245 245 165 182 240 247 238 238 226 224 216 213 219 212 195 207 190 184 177 193 225 210 199 188 179 166
209 206 207 210 207 204 213 218 214 210 233 239 241 246 237 232 253 241 245 237 198 206 224 231 227 224 227 224 216 219 208 192 199 203 187 173 191 242 200 198 191 180 170
215 200 211 212 205 205 201 204 202 209 228 232 256 261 237 246 244 244 239 257 237 236 196 199 217 229 233 209 207 210 207 189 193 200 190 178 189 209 184 193 187 179 168
205 210 216 212 202 206 198 197 208 227 224 240 247 235 259 280 257 245 241 230 253 258 258 168 204 207 183 189 201 220 218 190 190 198 197 186 184 159 168 168 157 151 143
200 203 212 213 198 202 197 202 215 208 238 237 260 266 277 259 247 238 249 241 233 230 237 247 179 190 175 186 198 216 221 203 196 193 192 177 156 159 170 156 147 142 136
198 201 212 193 202 206 198 191 208 213 224 232 253 253 253 246 244 248 241 236 228 227 206 205 218 211 169 177 196 204 187 159 233 192 175 160 163 163 174 167 144 140 135
194 195 202 186 195 191 192 191 202 206 212 210 259 299 267 202 238 235 239 231 227 223 219 193 192 206 188 181 185 184 183 187 201 188 169 166 163 160 161 146 136 133 130
174 188 192 189 181 194 186 186 195 210 225 210 247 253 267 283 161 203 222 237 215 199 248 151 191 181 194 227 143 168 178 184 186 177 164 167 164 155 144 136 138 136 132
171 180 182 182 185 193 159 182 197 214 223 222 194 252 266 298 271 203 214 215 186 166 161 213 198 179 178 232 172 73 159 180 182 169 174 160 140 136 139 138 144 138 141
167 171 173 176 176 183 169 170 191 209 218 257 210 186 229 226 223 252 208 176 149 118 159 211 190 183 183 221 176 141 158 173 175 161 150 147 153 147 144 149 152 151 152
163 162 167 170 165 171 180 189 202 211 236 225 256 236 226 221 228 226 203 163 159 75 189 219 175 205 210 190 165 126 153 164 152 143 137 137 135 143 151 151 152 151 150
158 162 166 167 169 176 179 189 194 195 203 217 218 218 243 221 208 220 226 157 143 127 176 166 168 192 231 193 159 159 152 159 145 138 135 141 145 148 151 153 157 154 155
152 154 163 165 167 176 188 186 188 207 197 208 216 233 249 247 224 223 203 160 165 156 177 136 168 183 179 177 97 138 153 142 139 140 143 148 149 152 158 158 153 159 162
130 154 156 163 173 186 185 182 213 205 202 206 194 228 232 232 221 213 190 187 203 163 160 184 142 177 150 167 99 160 161 144 150 151 147 148 147 150 148 130 134 147 141
141 152 160 170 178 182 189 200 203 206 202 188 221 232 222 220 192 230 178 189 193 175 144 170 151 138 142 135 110 136 133 147 141 146 144 142 135 131 129 131 134 131 121
147 155 163 169 174 184 198 212 223 216 207 174 188 251 255 214 189 197 193 157 186 199 141 124 97 122 110 144 130 107 140 142 140 137 138 127 118 115 113 114 115 114 114
148 153 161 168 177 191 199 218 226 225 138 164 184 211 242 211 199 192 186 172 198 187 161 146 132 105 89 106 110 114 102 122 133 127 117 102 98 99 104 108 111 114 121
150 154 162 175 185 187 218 235 247 180 163 181 209 201 238 208 188 189 184 183 170 163 147 137 114 100 77 101 98 92 96 99 107 109 103 104 96 97 101 110 113 118 126
153 152 166 168 146 189 327 293 312 206 193 194 214 217 225 205 187 173 173 185 165 149 133 128 117 109 101 101 102 111 99 99 106 99 84 89 96 87 101 105 122 128 130
158 156 164 137 127 67 35 5 119 131 154 160 159 225 234 182 75 156 171 188 152 152 143 136 115 119 122 126 121 118 106 102 89 104 104 107 125 145 132 129 124 141 137
162 151 143 126 102 68 46 358 343 132 136 140 166 161 146 122 100 97 68 305 170 165 156 147 134 138 128 120 125 126 122 120 103 71 107 105 165 133 160 169 106 122 129
140 157 135 124 93 93 56 41 303 123 134 140 117 132 134 114 153 151 108 104 93 78 150 158 146 147 142 143 137 134 133 131 126 130 124 111 118 160 160 108 103 128 147
159 158 139 105 88 84 62 74 327 100 111 132 157 157 163 153 151 149 156 143 137 143 147 159 145 145 138 142 137 139 128 111 103 121 125 114 212 169 160 124 141 161 168
144 167 138 111 90 95 77 144 251 123 110 118 124 133 147 152 142 154 152 144 135 95 53 80 106 117 125 119 128 122 126 131 130 139 229 148 186 164 177 169 163 183 195
169 166 133 86 64 113 100 39 72 100 99 95 84 123 132 131 143 158 144 137 125 131 117 106 103 98 109 111 111 133 139 137 143 146 191 169 171 167 182 180 182 182 201